Location: Haulchin
(50.3172°N, 3.4360°E)
Time: 02:21:53
(UTC+00:00)

Cosmos 1242 Rocket - Pass Details

Date: 23 May 2024
Orbit: 318 x 332 km, 81.1° (Epoch: 21 June)

Event Time Altitude Azimuth Distance (km) Brightness Sun altitude
Exits shadow 01:20:38 16° 134° (SE) 1,037 4.0 -15.8°
Maximum altitude 01:22:03 23° 93° (E) 829 3.9 -15.7°
Drops below altitude 10° 01:24:29 10° 38° (NE) 1,368 6.1 -15.6°
Enters shadow 02:16:16 -74° 193° (SSW) 12,563 9.7 -11.4°
